Location: Melbourne
(37.8170°S, 144.9670°E)
Time: 15:19:11
(UTC+10:00)

CZ-3 R/B - Visible Passes

Search period start: 26 September 2016 00:00
Search period end: 06 October 2016 01:00
Orbit: 219 x 10801 km, 28.5° (Epoch: 25 September)

Date Brightness Start Highest point End Pass type
(mag) Time Alt. Az. Time Alt. Az. Time Alt. Az.
26 Sep 5.5 01:23:09 15° NNE 01:23:09 15° NNE 01:29:36 10° NE visible
26 Sep 3.6 05:02:28 10° NW 05:15:09 26° N 05:20:01 10° ENE visible
27 Sep 5.1 02:28:17 22° N 02:31:23 22° NNE 02:41:47 10° ENE visible
27 Sep5.923:58:11ENE23:58:11ENE23:09:36Nvisible
28 Sep 4.4 03:33:12 20° NNW 03:43:14 28° N 03:51:04 10° ENE visible
29 Sep 5.5 01:02:55 17° NE 01:02:55 17° NE 01:09:18 10° ENE visible
29 Sep 3.6 04:37:53 12° NW 04:53:19 32° N 04:58:59 10° ENE visible
30 Sep 5.1 02:07:25 26° NNE 02:08:22 26° NNE 02:20:29 10° ENE visible
30 Sep 6.0 22:37:57 10° N 23:36:48 - ENE 22:44:58 11° N visible
01 Oct 4.5 03:11:43 26° NNW 03:20:08 32° N 03:29:10 10° ENE visible
01 Oct 5.5 23:45:04 10° NNW 00:40:55 18° NE 00:47:12 10° ENE visible
02 Oct 3.7 05:15:48 18° NW 05:30:03 37° N 05:36:36 10° ENE visible
03 Oct 5.2 02:44:50 30° NNE 02:44:50 30° NNE 02:57:42 10° ENE visible
03 Oct 3.0 06:23:42 10° WNW 06:38:36 38° N 06:43:18 10° ENE visible
03 Oct 6.0 23:04:00 10° N 00:13:42 - ENE 23:19:52 14° N visible
04 Oct 4.6 03:48:31 32° NNW 03:55:29 37° N 04:05:53 10° ENE visible
05 Oct 5.6 00:10:36 10° NNW 01:17:13 19° NE 01:23:26 10° ENE visible
05 Oct 3.8 04:52:01 24° NW 05:05:19 42° N 05:12:53 10° ENE visible
